Location: Unspecified
(17.6330°N, 0.0000°E)
Time: 00:37:45
(UTC+00:00)

S-56A Canister/Altair - Pass Details

Date: 25 June 2019
Orbit: 633 x 2499 km, 38.9° (Epoch: 18 August)

Event Time Altitude Azimuth Distance (km) Brightness Sun altitude
Rises 11:37:50 0° 219° (SW) 6,165 12.1 81.8°
Reaches altitude 10° 11:42:01 10° 215° (SW) 5,148 11.8 82.5°
Maximum altitude 11:56:32 59° 140° (SE) 2,451 11.2 84.1°
Drops below altitude 10° 12:07:36 10° 64° (ENE) 4,033 11.4 84.1°
Sets 12:10:27 0° 60° (ENE) 4,796 11.6 84.0°
